Back to catalog

SL-12 R/B(2)

AliveHEO
NORAD 27429·ROCKET BODY·🇷🇺 Russia

Launched May 7, 2002 from Baikonur Cosmodrome

Loading…

Next Passes (next 24 hours)

TLE

FreshSource: Space-Track

Epoch: Sep 9, 2026, 15:35 UTC

1 27429U 02023D   26252.64933836  .00000008  00000-0  00000-0 0  9998
2 27429  16.7065 183.7114 5419755  92.4544 138.4937  1.90581544169558

Track SL-12 R/B(2) in real time with AllMySat

Download on the App Store